map of ROW home
Great Circle Mapper logo
ROW - Airport
Location
City:  Roswell, New Mexico, United States
Name:Roswell International Air Center
Old (Alt.):Walker AFB
ICAO / IATA:KROW / ROW
FAA:ROW

Details
Type:Airport (Part 139 Class I)
Use:Public/Civil, Military, International (customs port of entry)
Latitude:3318'06"N (33.301556)
Longitude:10431'50"W (-104.530555)
Datum:WGS 1984
Elevation:3671 ft (1119 m)
Variation:7.7E (WMM2015 magnetic declination)
Runways:2
Longest:13001 × 150 ft (3963 × 45.5 m), paved

Time
Time Zone:UTC-7 (DST-6)
Local Time:

Weather
METAR:KROW 191951Z 29011G18KT 10SM CLR 15/M06 A3009 RMK AO2 SLP165 T01501061
TAF:KROW 191725Z 1918/2018 30007KT P6SM SKC
FM192200 VRB04KT P6SM SKC

Related Locations
Nearby:
Farthest:RRG: 11242 mi / 18092 km
Plaine Corail, Rodrigues Island, MU

Find:

   beyond  
but within

Other Information
Maps:
Delays:
NOTAMs:
Links:
Sources:

  
flag of United States
flag of New Mexico
flag of Roswell
  

Airport Diagram

Airport diagram for ROW

Airport diagram PDF

Sectional Chart

Flight Planning
at skyvector.com

Satellite Image

Google Maps Satellite View

 

Copyright © 2004-2014 Karl L. Swartz. All rights reserved.
The Great Circle Mapper name and logo are trademarks of the Great Circle Mapper.
All other trademarks mentioned herein belong to their respective owners.
Please see credits for attibutions and further copyright information.

  Follow gcmap on Facebook Follow gcmap on Twitter

hCard Microformat

Geo Microformat